Location: Colconda
(10.2500°N, 61.4333°W)
Time: 04:33:44
(UTC+00:00)

Daily predictions for brighter satellites

Satellite Brightness Start Highest point End
(mag) Time Altitude Azimuth Time Altitude Azimuth Time Altitude Azimuth
Meteosat 1 Rocket2 4.1 00:00:31 10° W 00:03:42 35° SW 00:03:42 35° SW
Meteor 1-12 Rocket 4.3 00:05:02 10° S 00:11:03 85° W 00:12:09 62° N
Cosmos 2341 Rocket 4.3 00:24:09 10° SSW 00:29:39 62° SW 00:29:39 62° SW
Centaur D-1AR AC-48 4.4 00:34:44 10° SW 00:41:24 52° SE 10:34:13 10° ESE
Atlas Centaur 2 3.9 00:38:33 10° W 00:43:34 29° NW 00:43:34 29° NW
Cosmos 2297 Rocket 4.0 00:47:21 10° SW 00:51:31 27° W 00:51:31 27° W
ARIANE 5 R/B 4.3 06:45:40 10° WSW 07:30:52 28° SE 07:32:56 10° ESE
ATLAS 3B R/B 4.2 07:40:51 10° S 07:47:38 35° ESE 07:54:21 10° NE
ARIANE 5 R/B 4.5 07:49:37 35° SSE 07:49:37 35° SSE 08:06:51 10° ESE
Atlas Centaur 2 4.2 08:07:12 13° ESE 08:07:12 13° ESE 08:07:45 10° ESE
Cosmos 1818 3.8 08:23:02 63° ESE 08:23:02 63° ESE 08:27:39 10° SSE
SEDSat Delta rocket 4.0 08:31:52 39° ESE 08:31:52 39° ESE 08:34:30 10° ESE
Cosmos 1607 3.9 08:29:37 27° SSW 08:33:04 76° ESE 08:39:10 10° NNE
S3M 4.5 08:30:10 10° S 08:36:27 61° E 08:42:41 10° NNE
GPS 2-17 Rocket1 3.8 08:38:26 41° NNE 08:38:26 41° NNE 08:42:10 10° E
IUS-9 SRM-1 4.2 08:41:04 20° NNE 08:41:04 20° NNE 08:42:23 10° ENE
Cosmos 1553 Rocket 4.0 08:37:43 10° S 08:43:48 77° E 08:49:59 10° N
Ariane 44LP R/B 3.8 08:47:01 26° S 08:47:01 26° S 08:48:55 10° SE
Cosmos 1190 Rocket 4.5 08:44:37 10° N 08:49:49 61° ENE 08:55:02 10° SSE
Ariane H10+ 3.0 08:50:39 36° SSW 08:51:18 39° S 08:56:33 10° ESE
Feng Yun 1-1 Rocket 4.5 08:48:14 10° N 08:53:56 51° WNW 08:59:38 10° SSW
XTE 4.2 08:55:58 39° ESE 08:55:58 39° ESE 08:58:00 10° ESE
H-2A R/B 2.9 08:50:59 33° WNW 08:55:09 70° SW 08:58:30 10° SE
Aurora 2 Rocket 4.5 08:51:20 31° WSW 08:56:45 90° N 09:07:56 10° ENE
ARIANE 5 R/B 4.1 08:58:32 12° SSE 08:58:32 12° SSE 08:59:04 10° SE
deb Kosmos-1763 4.0 08:59:10 62° NNW 08:59:44 83° WSW 09:03:34 10° S
Milstar 3 Cent rocket 4.3 08:48:42 25° WNW 09:02:38 83° SSW 09:12:17 10° ESE
SWIFT 2.3 09:05:04 52° W 09:05:58 70° NNW 09:10:13 10° ENE
VEP-3 4.4 07:52:49 10° WSW 09:08:19 75° NNW 09:15:47 10° ENE
Radarsat Rocket 3.9 09:04:03 10° N 09:10:30 71° WNW 09:16:24 10° SSW
USA 238 DEB 3.7 09:05:38 10° SSW 09:12:39 82° WNW 09:19:40 10° NNE
USA 238 3.7 09:05:43 10° SSW 09:12:45 83° WNW 09:19:46 10° NNE
Ariane Rocket 3.3 09:16:01 10° NNE 09:21:02 69° ESE 09:26:04 10° S
Thor Agena Rocket 3.5 09:18:05 10° SSE 09:23:22 86° WSW 09:28:36 10° NNW
ATLAS CENTAUR Rocket 4.3 09:21:18 10° SW 09:24:14 14° S 09:29:03 10° SSE
IUS-18 SRM-1 2.2 09:22:51 18° SW 09:24:39 43° SSE 09:26:36 10° E
Cosmos 1331 Rocket 4.2 09:21:14 10° S 09:26:21 74° ESE 09:31:30 10° NNE
Cosmos 1782 3.2 09:27:51 10° SSW 09:31:33 38° W 09:35:13 10° NNW
ARIANE 5 R/B 3.6 09:26:54 14° WSW 09:34:13 32° SSW 09:37:06 10° SE
Cosmos 2369 3.6 09:30:26 10° SSW 09:36:05 80° WNW 09:41:43 10° NNE
ARIANE 5 R/B 3.9 09:34:13 10° SW 09:38:00 25° SSE 09:49:29 10° ESE
ATLAS 3B R/B 3.6 09:31:40 10° WSW 09:38:10 30° WNW 09:44:37 10° N
Cosmos 1110 Rocket 3.9 09:34:06 10° SSW 09:39:13 64° WNW 09:44:19 10° N
Cosmos 1606 3.1 09:36:38 10° SSW 09:40:13 39° W 09:43:50 10° NNW
CSL-04 Rocket 3.7 09:34:55 10° N 09:40:21 84° WNW 09:45:53 10° SSW
Meteor 1-14 Rocket 4.3 09:36:56 10° NNW 09:42:27 54° W 09:47:52 10° S
NOSS 3-2 (C) 4.4 09:37:47 10° S 09:43:25 48° ESE 09:49:08 10° NE
Meteor 2-6 Rocket 4.3 09:39:04 10° SSW 09:44:17 48° W 09:49:27 10° N
ISS -2.5 09:42:20 10° SSW 09:45:32 53° SE 09:48:44 10° NE
Cosmos 1745 Rocket 3.9 09:45:23 10° N 09:51:27 71° W 09:57:32 10° S
Atlas Centaur 2 3.0 09:49:56 10° WSW 09:52:44 19° SSW 09:55:51 10° SSE
Cosmos 2278 3.9 09:47:33 10° SSW 09:52:58 48° WNW 09:58:23 10° N
SKYMED 2 3.5 09:48:52 10° S 09:53:11 70° WSW 09:57:29 10° NNW
YAOGAN 1 4.4 09:49:40 10° NNE 09:53:39 36° E 09:57:37 10° SSE
Cosmos 1302 Rocket 4.1 09:55:01 10° SSW 10:00:18 90° N 10:05:36 10° NNE
Cosmos 1174 3.2 09:57:46 10° SW 10:00:44 50° WNW 10:03:36 10° N
Ariane H10 3.9 10:08:47 10° W 10:20:21 60° S 10:23:14 10° ESE
